• In Romania
  • List of Countries
  • For 7 days
  • Water Temperature
  • Satellite Maps
  • Weather Map
  • Weather Widgets
  • user-avatar
    Login

    Hourly Weather Sankt Polten

    Today, 28 February, Tuesday

    Time Temperature Precipitation Wind Pressure Humidity
    00:00 +4°C° 0 mm 1 mps 726 mmHg 89%
    01:00 +4°C° 0 mm 1 mps 726 mmHg 88%
    02:00 +3°C° 0 mm 1 mps 725 mmHg 88%
    03:00 +3°C° 0 mm 1 mps 725 mmHg 87%
    04:00 +3°C° 0 mm 1 mps 724 mmHg 87%
    05:00 +3°C° 0 mm 1 mps 724 mmHg 87%
    06:00 +3°C° 0 mm 1 mps 723 mmHg 88%
    07:00 +3°C° 0 mm 1 mps 723 mmHg 88%
    08:00 +4°C° 0 mm 2 mps 723 mmHg 81%
    09:00 +5°C° 0 mm 3 mps 724 mmHg 75%
    10:00 +8°C° 0 mm 3 mps 724 mmHg 69%
    11:00 +8°C° 0 mm 3 mps 724 mmHg 68%
    12:00 +9°C° 0 mm 3 mps 725 mmHg 68%
    13:00 +9°C° 0 mm 3 mps 725 mmHg 68%
    14:00 +9°C° 0.1 mm 3 mps 725 mmHg 74%
    15:00 +8°C° 0.1 mm 2 mps 724 mmHg 79%
    16:00 +8°C° 0.1 mm 1 mps 724 mmHg 84%
    17:00 +7°C° 0.1 mm 2 mps 723 mmHg 87%
    18:00 +5°C° 0.1 mm 3 mps 723 mmHg 89%
    19:00 +4°C° 0.1 mm 3 mps 722 mmHg 92%
    20:00 +5°C° 0.1 mm 3 mps 722 mmHg 92%
    21:00 +5°C° 0.1 mm 3 mps 721 mmHg 92%
    22:00 +5°C° 0.1 mm 3 mps 721 mmHg 92%
    23:00 +4°C° 0.5 mm 4 mps 722 mmHg 91%

    Tomorrow, 1 March, Wednesday

    Time Temperature Precipitation Wind Pressure Humidity
    00:00 +3°C° 0.5 mm 5 mps 723 mmHg 89%
    01:00 +2°C° 0.5 mm 6 mps 723 mmHg 87%
    02:00 +2°C° 0.1 mm 6 mps 724 mmHg 87%
    03:00 +2°C° 0.1 mm 6 mps 724 mmHg 86%
    04:00 +2°C° 0.1 mm 6 mps 725 mmHg 86%
    05:00 +2°C° 0 mm 6 mps 725 mmHg 86%
    06:00 +1°C° 0 mm 5 mps 726 mmHg 87%
    07:00 +1°C° 0 mm 5 mps 727 mmHg 88%
    08:00 +1°C° 0 mm 5 mps 727 mmHg 85%
    09:00 +2°C° 0 mm 6 mps 728 mmHg 82%
    10:00 +2°C° 0 mm 6 mps 728 mmHg 79%
    11:00 +3°C° 0 mm 6 mps 728 mmHg 76%
    12:00 +4°C° 0 mm 7 mps 728 mmHg 73%
    13:00 +5°C° 0 mm 7 mps 729 mmHg 69%
    14:00 +5°C° 0 mm 7 mps 729 mmHg 71%
    15:00 +5°C° 0 mm 6 mps 729 mmHg 73%
    16:00 +4°C° 0 mm 6 mps 730 mmHg 74%
    17:00 +3°C° 0 mm 5 mps 730 mmHg 79%
    18:00 +3°C° 0 mm 4 mps 731 mmHg 84%
    19:00 +1°C° 0 mm 4 mps 732 mmHg 88%
    20:00 +2°C° 0 mm 3 mps 732 mmHg 89%
    21:00 +2°C° 0 mm 3 mps 733 mmHg 89%
    22:00 +2°C° 0 mm 3 mps 733 mmHg 89%
    23:00 +1°C° 0 mm 3 mps 733 mmHg 89%

    Day after tomorrow, 2 March, Thursday

    Time Temperature Precipitation Wind Pressure Humidity
    00:00 +2°C° 0 mm 2 mps 733 mmHg 88%
    01:00 +2°C° 0 mm 2 mps 732 mmHg 88%
    02:00 +2°C° 0.2 mm 2 mps 732 mmHg 86%
    03:00 +3°C° 0.2 mm 2 mps 732 mmHg 83%
    04:00 +3°C° 0.2 mm 2 mps 732 mmHg 81%
    05:00 +3°C° 0.3 mm 2 mps 732 mmHg 82%
    06:00 +3°C° 0.3 mm 2 mps 732 mmHg 84%
    07:00 +3°C° 0.3 mm 2 mps 732 mmHg 85%
    08:00 +4°C° 0.2 mm 3 mps 732 mmHg 84%
    09:00 +5°C° 0.2 mm 3 mps 732 mmHg 83%
    10:00 +7°C° 0.2 mm 3 mps 733 mmHg 82%
    11:00 +7°C° 0.2 mm 4 mps 733 mmHg 83%
    12:00 +7°C° 0.2 mm 4 mps 734 mmHg 83%
    13:00 +7°C° 0.2 mm 5 mps 734 mmHg 83%
    14:00 +7°C° 0 mm 5 mps 734 mmHg 81%
    15:00 +7°C° 0 mm 5 mps 735 mmHg 79%
    16:00 +7°C° 0 mm 5 mps 735 mmHg 77%
    17:00 +6°C° 0 mm 4 mps 735 mmHg 82%
    18:00 +4°C° 0 mm 3 mps 736 mmHg 86%
    19:00 +4°C° 0 mm 2 mps 737 mmHg 91%
    20:00 +3°C° 0 mm 2 mps 737 mmHg 91%
    21:00 +3°C° 0 mm 2 mps 737 mmHg 92%
    22:00 +2°C° 0 mm 2 mps 737 mmHg 93%
    23:00 +3°C° 0 mm 1 mps 737 mmHg 93%

    3 March, Friday

    Time Temperature Precipitation Wind Pressure Humidity
    00:00 +3°C° 0 mm 1 mps 737 mmHg 93%
    01:00 +3°C° 0 mm 1 mps 737 mmHg 93%
    02:00 +3°C° 0 mm 1 mps 736 mmHg 93%
    03:00 +2°C° 0 mm 2 mps 736 mmHg 93%
    04:00 +2°C° 0 mm 2 mps 735 mmHg 93%
    05:00 +3°C° 0 mm 2 mps 735 mmHg 94%
    06:00 +3°C° 0 mm 2 mps 734 mmHg 94%
    07:00 +3°C° 0 mm 2 mps 734 mmHg 95%
    08:00 +5°C° 0 mm 2 mps 733 mmHg 89%
    09:00 +7°C° 0 mm 2 mps 733 mmHg 83%
    10:00 +9°C° 0 mm 3 mps 733 mmHg 77%
    11:00 +10°C° 0 mm 3 mps 732 mmHg 74%
    12:00 +11°C° 0 mm 3 mps 732 mmHg 71%
    13:00 +13°C° 0 mm 3 mps 731 mmHg 68%
    14:00 +13°C° 0 mm 3 mps 730 mmHg 71%
    15:00 +13°C° 0 mm 2 mps 730 mmHg 74%
    16:00 +13°C° 0 mm 2 mps 729 mmHg 76%
    17:00 +10°C° 0 mm 2 mps 729 mmHg 81%
    18:00 +9°C° 0 mm 2 mps 728 mmHg 86%
    19:00 +7°C° 0 mm 2 mps 728 mmHg 91%
    20:00 +7°C° 0 mm 2 mps 728 mmHg 91%
    21:00 +5°C° 0 mm 3 mps 727 mmHg 91%
    22:00 +5°C° 0 mm 3 mps 727 mmHg 91%
    23:00 +5°C° 0 mm 3 mps 727 mmHg 91%

    4 March, Saturday

    Time Temperature Precipitation Wind Pressure Humidity
    00:00 +5°C° 0 mm 3 mps 726 mmHg 90%
    01:00 +5°C° 0 mm 3 mps 726 mmHg 89%
    02:00 +5°C° 0 mm 3 mps 726 mmHg 89%
    03:00 +5°C° 0 mm 3 mps 726 mmHg 88%
    04:00 +5°C° 0 mm 3 mps 725 mmHg 88%
    05:00 +5°C° 0 mm 3 mps 725 mmHg 88%
    06:00 +5°C° 0 mm 3 mps 725 mmHg 87%
    07:00 +5°C° 0 mm 3 mps 725 mmHg 87%
    08:00 +8°C° 0 mm 3 mps 725 mmHg 82%
    09:00 +8°C° 0 mm 4 mps 726 mmHg 78%
    10:00 +11°C° 0 mm 4 mps 726 mmHg 74%
    11:00 +11°C° 0 mm 4 mps 726 mmHg 73%
    12:00 +12°C° 0 mm 4 mps 726 mmHg 72%
    13:00 +12°C° 0 mm 3 mps 727 mmHg 71%
    14:00 +11°C° 0.2 mm 4 mps 727 mmHg 76%
    15:00 +8°C° 0.2 mm 4 mps 728 mmHg 81%
    16:00 +7°C° 0.2 mm 4 mps 729 mmHg 86%
    17:00 +7°C° 0 mm 3 mps 729 mmHg 88%
    18:00 +5°C° 0 mm 2 mps 730 mmHg 90%
    19:00 +4°C° 0 mm 2 mps 730 mmHg 92%
    20:00 +5°C° 0 mm 1 mps 730 mmHg 91%
    21:00 +5°C° 0 mm 1 mps 731 mmHg 90%
    22:00 +5°C° 0 mm 1 mps 731 mmHg 89%
    23:00 +5°C° 0 mm 1 mps 731 mmHg 89%

    5 March, Sunday

    Time Temperature Precipitation Wind Pressure Humidity
    00:00 +5°C° 0 mm 1 mps 731 mmHg 90%
    01:00 +5°C° 0 mm 1 mps 730 mmHg 90%
    02:00 +5°C° 0 mm 1 mps 730 mmHg 91%
    03:00 +5°C° 0 mm 1 mps 730 mmHg 92%
    04:00 +5°C° 0 mm 1 mps 730 mmHg 94%
    05:00 +5°C° 0 mm 1 mps 731 mmHg 94%
    06:00 +5°C° 0 mm 1 mps 731 mmHg 94%
    07:00 +5°C° 0 mm 1 mps 731 mmHg 94%
    08:00 +7°C° 0 mm 1 mps 731 mmHg 89%
    09:00 +9°C° 0 mm 1 mps 732 mmHg 83%
    10:00 +11°C° 0 mm 1 mps 732 mmHg 78%
    11:00 +12°C° 0 mm 2 mps 731 mmHg 77%
    12:00 +12°C° 0 mm 2 mps 731 mmHg 77%
    13:00 +13°C° 0 mm 2 mps 731 mmHg 76%
    14:00 +12°C° 0 mm 3 mps 730 mmHg 77%
    15:00 +12°C° 0 mm 3 mps 730 mmHg 78%
    16:00 +12°C° 0 mm 3 mps 730 mmHg 79%
    17:00 +11°C° 0 mm 3 mps 730 mmHg 83%
    18:00 +9°C° 0 mm 2 mps 730 mmHg 87%
    19:00 +8°C° 0 mm 2 mps 730 mmHg 91%
    20:00 +8°C° 0 mm 2 mps 730 mmHg 92%
    21:00 +7°C° 0 mm 2 mps 730 mmHg 92%
    22:00 +7°C° 0 mm 2 mps 729 mmHg 93%
    23:00 +7°C° 0 mm 2 mps 729 mmHg 93%
    Show more